owner,sensor,date,latitude,longitude,vertical_datum,sea_water_temperature,qcFlag 
COMPS,ioos:station:USF.COMPS:FHP:1,2013-11-11T19:00:00Z,28.1530,-82.8010,-1.0,23.54,2 
COMPS,ioos:station:USF.COMPS:FHP:1,2013-11-11T19:06:00Z,28.1530,-82.8010,-1.0,23.51,2 
COMPS,ioos:station:USF.COMPS:FHP:1,2013-11-11T19:12:00Z,28.1530,-82.8010,-1.0,23.58,2 
COMPS,ioos:station:USF.COMPS:FHP:1,2013-11-11T19:18:00Z,28.1530,-82.8010,-1.0,23.66,2 
COMPS,ioos:station:USF.COMPS:FHP:1,2013-11-11T19:24:00Z,28.1530,-82.8010,-1.0,23.69,2 
COMPS,ioos:station:USF.COMPS:FHP:1,2013-11-11T19:30:00Z,28.1530,-82.8010,-1.0,23.69,2 
COMPS,ioos:station:USF.COMPS:FHP:1,2013-11-11T19:36:00Z,28.1530,-82.8010,-1.0,23.73,2 
COMPS,ioos:station:USF.COMPS:FHP:1,2013-11-11T19:42:00Z,28.1530,-82.8010,-1.0,23.74,2 
COMPS,ioos:station:USF.COMPS:FHP:1,2013-11-11T19:48:00Z,28.1530,-82.8010,-1.0,23.76,2 
COMPS,ioos:station:USF.COMPS:FHP:1,2013-11-11T19:54:00Z,28.1530,-82.8010,-1.0,23.83,2 
COMPS,ioos:station:USF.COMPS:FHP:1,2013-11-11T20:00:00Z,28.1530,-82.8010,-1.0,23.74,2 
COMPS,ioos:station:USF.COMPS:FHP:1,2013-11-11T20:06:00Z,28.1530,-82.8010,-1.0,23.67,2 
COMPS,ioos:station:USF.COMPS:FHP:1,2013-11-11T20:12:00Z,28.1530,-82.8010,-1.0,23.62,2 
COMPS,ioos:station:USF.COMPS:FHP:1,2013-11-11T20:18:00Z,28.1530,-82.8010,-1.0,23.6,2 
COMPS,ioos:station:USF.COMPS:FHP:1,2013-11-11T20:24:00Z,28.1530,-82.8010,-1.0,23.64,2 
COMPS,ioos:station:USF.COMPS:FHP:1,2013-11-11T20:30:00Z,28.1530,-82.8010,-1.0,23.66,2 
COMPS,ioos:station:USF.COMPS:FHP:1,2013-11-11T20:36:00Z,28.1530,-82.8010,-1.0,23.7,2 
COMPS,ioos:station:USF.COMPS:FHP:1,2013-11-11T20:42:00Z,28.1530,-82.8010,-1.0,23.74,2 
COMPS,ioos:station:USF.COMPS:FHP:1,2013-11-11T20:48:00Z,28.1530,-82.8010,-1.0,23.74,2 
COMPS,ioos:station:USF.COMPS:FHP:1,2013-11-11T20:54:00Z,28.1530,-82.8010,-1.0,23.62,2 
COMPS,ioos:station:USF.COMPS:FHP:1,2013-11-11T21:00:00Z,28.1530,-82.8010,-1.0,23.62,2 
COMPS,ioos:station:USF.COMPS:FHP:1,2013-11-11T21:06:00Z,28.1530,-82.8010,-1.0,23.66,2 
COMPS,ioos:station:USF.COMPS:FHP:1,2013-11-11T21:12:00Z,28.1530,-82.8010,-1.0,23.76,2 
COMPS,ioos:station:USF.COMPS:FHP:1,2013-11-11T21:18:00Z,28.1530,-82.8010,-1.0,23.83,2 
COMPS,ioos:station:USF.COMPS:FHP:1,2013-11-11T21:24:00Z,28.1530,-82.8010,-1.0,23.58,2 
COMPS,ioos:station:USF.COMPS:FHP:1,2013-11-11T21:30:00Z,28.1530,-82.8010,-1.0,23.61,2 
COMPS,ioos:station:USF.COMPS:FHP:1,2013-11-11T21:36:00Z,28.1530,-82.8010,-1.0,23.57,2 
COMPS,ioos:station:USF.COMPS:FHP:1,2013-11-11T21:42:00Z,28.1530,-82.8010,-1.0,23.54,2 
COMPS,ioos:station:USF.COMPS:FHP:1,2013-11-11T21:48:00Z,28.1530,-82.8010,-1.0,23.45,2 
COMPS,ioos:station:USF.COMPS:FHP:1,2013-11-11T21:54:00Z,28.1530,-82.8010,-1.0,23.41,2 
COMPS,ioos:station:USF.COMPS:FHP:1,2013-11-11T22:00:00Z,28.1530,-82.8010,-1.0,23.36,2 
COMPS,ioos:station:USF.COMPS:FHP:1,2013-11-11T22:06:00Z,28.1530,-82.8010,-1.0,23.13,2 
COMPS,ioos:station:USF.COMPS:FHP:1,2013-11-11T22:12:00Z,28.1530,-82.8010,-1.0,23.13,2 
COMPS,ioos:station:USF.COMPS:FHP:1,2013-11-11T22:18:00Z,28.1530,-82.8010,-1.0,23.18,2 
COMPS,ioos:station:USF.COMPS:FHP:1,2013-11-11T22:24:00Z,28.1530,-82.8010,-1.0,23.41,2 
COMPS,ioos:station:USF.COMPS:FHP:1,2013-11-11T22:30:00Z,28.1530,-82.8010,-1.0,23.42,2 
COMPS,ioos:station:USF.COMPS:FHP:1,2013-11-11T22:36:00Z,28.1530,-82.8010,-1.0,23.36,2 
COMPS,ioos:station:USF.COMPS:FHP:1,2013-11-11T22:42:00Z,28.1530,-82.8010,-1.0,23.33,2 
COMPS,ioos:station:USF.COMPS:FHP:1,2013-11-11T22:48:00Z,28.1530,-82.8010,-1.0,23.45,2 
COMPS,ioos:station:USF.COMPS:FHP:1,2013-11-11T22:54:00Z,28.1530,-82.8010,-1.0,23.42,2 
COMPS,ioos:station:USF.COMPS:FHP:1,2013-11-11T23:00:00Z,28.1530,-82.8010,-1.0,23.39,2 
COMPS,ioos:station:USF.COMPS:FHP:1,2013-11-11T23:06:00Z,28.1530,-82.8010,-1.0,23.38,2 
COMPS,ioos:station:USF.COMPS:FHP:1,2013-11-11T23:12:00Z,28.1530,-82.8010,-1.0,23.35,2 
COMPS,ioos:station:USF.COMPS:FHP:1,2013-11-11T23:18:00Z,28.1530,-82.8010,-1.0,23.32,2 
COMPS,ioos:station:USF.COMPS:FHP:1,2013-11-11T23:24:00Z,28.1530,-82.8010,-1.0,23.31,2 
COMPS,ioos:station:USF.COMPS:FHP:1,2013-11-11T23:30:00Z,28.1530,-82.8010,-1.0,23.28,2 
COMPS,ioos:station:USF.COMPS:FHP:1,2013-11-11T23:36:00Z,28.1530,-82.8010,-1.0,23.25,2 
COMPS,ioos:station:USF.COMPS:FHP:1,2013-11-11T23:42:00Z,28.1530,-82.8010,-1.0,23.18,2 
COMPS,ioos:station:USF.COMPS:FHP:1,2013-11-11T23:48:00Z,28.1530,-82.8010,-1.0,23.12,2 
COMPS,ioos:station:USF.COMPS:FHP:1,2013-11-11T23:54:00Z,28.1530,-82.8010,-1.0,23.09,2 
COMPS,ioos:station:USF.COMPS:FHP:1,2013-11-12T00:00:00Z,28.1530,-82.8010,-1.0,23.1,2 
COMPS,ioos:station:USF.COMPS:FHP:1,2013-11-12T00:06:00Z,28.1530,-82.8010,-1.0,22.95,2 
COMPS,ioos:station:USF.COMPS:FHP:1,2013-11-12T00:12:00Z,28.1530,-82.8010,-1.0,22.92,2 
COMPS,ioos:station:USF.COMPS:FHP:1,2013-11-12T00:18:00Z,28.1530,-82.8010,-1.0,22.86,2 
COMPS,ioos:station:USF.COMPS:FHP:1,2013-11-12T00:24:00Z,28.1530,-82.8010,-1.0,22.76,2 
COMPS,ioos:station:USF.COMPS:FHP:1,2013-11-12T00:30:00Z,28.1530,-82.8010,-1.0,22.72,2 
COMPS,ioos:station:USF.COMPS:FHP:1,2013-11-12T00:36:00Z,28.1530,-82.8010,-1.0,22.7,2 
COMPS,ioos:station:USF.COMPS:FHP:1,2013-11-12T00:42:00Z,28.1530,-82.8010,-1.0,22.66,2 
COMPS,ioos:station:USF.COMPS:FHP:1,2013-11-12T00:48:00Z,28.1530,-82.8010,-1.0,22.67,2 
COMPS,ioos:station:USF.COMPS:FHP:1,2013-11-12T00:54:00Z,28.1530,-82.8010,-1.0,22.62,2 
COMPS,ioos:station:USF.COMPS:FHP:1,2013-11-12T01:00:00Z,28.1530,-82.8010,-1.0,22.59,2 
COMPS,ioos:station:USF.COMPS:FHP:1,2013-11-12T01:06:00Z,28.1530,-82.8010,-1.0,22.56,2 
COMPS,ioos:station:USF.COMPS:FHP:1,2013-11-12T01:12:00Z,28.1530,-82.8010,-1.0,22.53,2 
COMPS,ioos:station:USF.COMPS:FHP:1,2013-11-12T01:18:00Z,28.1530,-82.8010,-1.0,22.51,2 
COMPS,ioos:station:USF.COMPS:FHP:1,2013-11-12T01:24:00Z,28.1530,-82.8010,-1.0,22.55,2 
COMPS,ioos:station:USF.COMPS:FHP:1,2013-11-12T01:30:00Z,28.1530,-82.8010,-1.0,22.52,2 
COMPS,ioos:station:USF.COMPS:FHP:1,2013-11-12T01:36:00Z,28.1530,-82.8010,-1.0,22.54,2 
COMPS,ioos:station:USF.COMPS:FHP:1,2013-11-12T01:42:00Z,28.1530,-82.8010,-1.0,22.49,2 
COMPS,ioos:station:USF.COMPS:FHP:1,2013-11-12T01:48:00Z,28.1530,-82.8010,-1.0,22.46,2 
COMPS,ioos:station:USF.COMPS:FHP:1,2013-11-12T01:54:00Z,28.1530,-82.8010,-1.0,22.43,2 
COMPS,ioos:station:USF.COMPS:FHP:1,2013-11-12T02:00:00Z,28.1530,-82.8010,-1.0,22.39,2 
COMPS,ioos:station:USF.COMPS:FHP:1,2013-11-12T02:06:00Z,28.1530,-82.8010,-1.0,22.39,2 
COMPS,ioos:station:USF.COMPS:FHP:1,2013-11-12T02:12:00Z,28.1530,-82.8010,-1.0,22.38,2 
COMPS,ioos:station:USF.COMPS:FHP:1,2013-11-12T02:18:00Z,28.1530,-82.8010,-1.0,22.37,2 
COMPS,ioos:station:USF.COMPS:FHP:1,2013-11-12T02:24:00Z,28.1530,-82.8010,-1.0,22.37,2 
COMPS,ioos:station:USF.COMPS:FHP:1,2013-11-12T02:30:00Z,28.1530,-82.8010,-1.0,22.36,2 
COMPS,ioos:station:USF.COMPS:FHP:1,2013-11-12T02:36:00Z,28.1530,-82.8010,-1.0,22.34,2 
COMPS,ioos:station:USF.COMPS:FHP:1,2013-11-12T02:42:00Z,28.1530,-82.8010,-1.0,22.33,2 
COMPS,ioos:station:USF.COMPS:FHP:1,2013-11-12T02:48:00Z,28.1530,-82.8010,-1.0,22.32,2 
COMPS,ioos:station:USF.COMPS:FHP:1,2013-11-12T02:54:00Z,28.1530,-82.8010,-1.0,22.32,2 
COMPS,ioos:station:USF.COMPS:FHP:1,2013-11-12T03:00:00Z,28.1530,-82.8010,-1.0,22.32,2 
COMPS,ioos:station:USF.COMPS:FHP:1,2013-11-12T03:06:00Z,28.1530,-82.8010,-1.0,22.31,2 
COMPS,ioos:station:USF.COMPS:FHP:1,2013-11-12T03:12:00Z,28.1530,-82.8010,-1.0,22.31,2 
COMPS,ioos:station:USF.COMPS:FHP:1,2013-11-12T03:18:00Z,28.1530,-82.8010,-1.0,22.35,2 
COMPS,ioos:station:USF.COMPS:FHP:1,2013-11-12T03:24:00Z,28.1530,-82.8010,-1.0,22.35,2 
COMPS,ioos:station:USF.COMPS:FHP:1,2013-11-12T03:30:00Z,28.1530,-82.8010,-1.0,22.36,2 
COMPS,ioos:station:USF.COMPS:FHP:1,2013-11-12T03:36:00Z,28.1530,-82.8010,-1.0,22.45,2 
COMPS,ioos:station:USF.COMPS:FHP:1,2013-11-12T03:42:00Z,28.1530,-82.8010,-1.0,22.55,2 
COMPS,ioos:station:USF.COMPS:FHP:1,2013-11-12T03:48:00Z,28.1530,-82.8010,-1.0,22.6,2 
COMPS,ioos:station:USF.COMPS:FHP:1,2013-11-12T03:54:00Z,28.1530,-82.8010,-1.0,22.62,2 
COMPS,ioos:station:USF.COMPS:FHP:1,2013-11-12T04:00:00Z,28.1530,-82.8010,-1.0,22.59,2 
COMPS,ioos:station:USF.COMPS:FHP:1,2013-11-12T04:06:00Z,28.1530,-82.8010,-1.0,22.58,2 
COMPS,ioos:station:USF.COMPS:FHP:1,2013-11-12T04:12:00Z,28.1530,-82.8010,-1.0,22.58,2 
COMPS,ioos:station:USF.COMPS:FHP:1,2013-11-12T04:18:00Z,28.1530,-82.8010,-1.0,22.56,2 
COMPS,ioos:station:USF.COMPS:FHP:1,2013-11-12T04:24:00Z,28.1530,-82.8010,-1.0,22.55,2 
COMPS,ioos:station:USF.COMPS:FHP:1,2013-11-12T04:30:00Z,28.1530,-82.8010,-1.0,22.53,2 
COMPS,ioos:station:USF.COMPS:FHP:1,2013-11-12T04:36:00Z,28.1530,-82.8010,-1.0,22.51,2 
COMPS,ioos:station:USF.COMPS:FHP:1,2013-11-12T04:42:00Z,28.1530,-82.8010,-1.0,22.49,2 
COMPS,ioos:station:USF.COMPS:FHP:1,2013-11-12T04:48:00Z,28.1530,-82.8010,-1.0,22.48,2 
COMPS,ioos:station:USF.COMPS:FHP:1,2013-11-12T04:54:00Z,28.1530,-82.8010,-1.0,22.46,2 
COMPS,ioos:station:USF.COMPS:FHP:1,2013-11-12T05:00:00Z,28.1530,-82.8010,-1.0,22.44,2 
COMPS,ioos:station:USF.COMPS:FHP:1,2013-11-12T05:06:00Z,28.1530,-82.8010,-1.0,22.43,2 
COMPS,ioos:station:USF.COMPS:FHP:1,2013-11-12T05:12:00Z,28.1530,-82.8010,-1.0,22.41,2 
COMPS,ioos:station:USF.COMPS:FHP:1,2013-11-12T05:18:00Z,28.1530,-82.8010,-1.0,22.37,2 
COMPS,ioos:station:USF.COMPS:FHP:1,2013-11-12T05:24:00Z,28.1530,-82.8010,-1.0,22.36,2 
COMPS,ioos:station:USF.COMPS:FHP:1,2013-11-12T05:30:00Z,28.1530,-82.8010,-1.0,22.35,2 
COMPS,ioos:station:USF.COMPS:FHP:1,2013-11-12T05:36:00Z,28.1530,-82.8010,-1.0,22.36,2 
COMPS,ioos:station:USF.COMPS:FHP:1,2013-11-12T05:42:00Z,28.1530,-82.8010,-1.0,22.35,2 
COMPS,ioos:station:USF.COMPS:FHP:1,2013-11-12T05:48:00Z,28.1530,-82.8010,-1.0,22.34,2 
COMPS,ioos:station:USF.COMPS:FHP:1,2013-11-12T05:54:00Z,28.1530,-82.8010,-1.0,22.33,2 
COMPS,ioos:station:USF.COMPS:FHP:1,2013-11-12T06:00:00Z,28.1530,-82.8010,-1.0,22.33,2 
COMPS,ioos:station:USF.COMPS:FHP:1,2013-11-12T06:06:00Z,28.1530,-82.8010,-1.0,22.33,2 
COMPS,ioos:station:USF.COMPS:FHP:1,2013-11-12T06:12:00Z,28.1530,-82.8010,-1.0,22.34,2 
COMPS,ioos:station:USF.COMPS:FHP:1,2013-11-12T06:18:00Z,28.1530,-82.8010,-1.0,22.3,2 
COMPS,ioos:station:USF.COMPS:FHP:1,2013-11-12T06:24:00Z,28.1530,-82.8010,-1.0,22.3,2 
COMPS,ioos:station:USF.COMPS:FHP:1,2013-11-12T06:30:00Z,28.1530,-82.8010,-1.0,22.33,2 
COMPS,ioos:station:USF.COMPS:FHP:1,2013-11-12T06:36:00Z,28.1530,-82.8010,-1.0,22.34,2 
COMPS,ioos:station:USF.COMPS:FHP:1,2013-11-12T06:42:00Z,28.1530,-82.8010,-1.0,22.29,2 
COMPS,ioos:station:USF.COMPS:FHP:1,2013-11-12T06:48:00Z,28.1530,-82.8010,-1.0,22.32,2 
COMPS,ioos:station:USF.COMPS:FHP:1,2013-11-12T06:54:00Z,28.1530,-82.8010,-1.0,22.37,2 
COMPS,ioos:station:USF.COMPS:FHP:1,2013-11-12T07:00:00Z,28.1530,-82.8010,-1.0,22.4,2 
COMPS,ioos:station:USF.COMPS:FHP:1,2013-11-12T07:06:00Z,28.1530,-82.8010,-1.0,22.42,2 
COMPS,ioos:station:USF.COMPS:FHP:1,2013-11-12T07:12:00Z,28.1530,-82.8010,-1.0,22.38,2 
COMPS,ioos:station:USF.COMPS:FHP:1,2013-11-12T07:18:00Z,28.1530,-82.8010,-1.0,22.34,2 
COMPS,ioos:station:USF.COMPS:FHP:1,2013-11-12T07:24:00Z,28.1530,-82.8010,-1.0,22.36,2 
COMPS,ioos:station:USF.COMPS:FHP:1,2013-11-12T07:30:00Z,28.1530,-82.8010,-1.0,22.34,2 
COMPS,ioos:station:USF.COMPS:FHP:1,2013-11-12T07:36:00Z,28.1530,-82.8010,-1.0,22.33,2 
COMPS,ioos:station:USF.COMPS:FHP:1,2013-11-12T07:42:00Z,28.1530,-82.8010,-1.0,22.34,2 
COMPS,ioos:station:USF.COMPS:FHP:1,2013-11-12T07:48:00Z,28.1530,-82.8010,-1.0,22.33,2 
COMPS,ioos:station:USF.COMPS:FHP:1,2013-11-12T07:54:00Z,28.1530,-82.8010,-1.0,22.33,2 
COMPS,ioos:station:USF.COMPS:FHP:1,2013-11-12T08:00:00Z,28.1530,-82.8010,-1.0,22.3,2 
COMPS,ioos:station:USF.COMPS:FHP:1,2013-11-12T08:06:00Z,28.1530,-82.8010,-1.0,22.27,2 
COMPS,ioos:station:USF.COMPS:FHP:1,2013-11-12T08:12:00Z,28.1530,-82.8010,-1.0,22.24,2 
COMPS,ioos:station:USF.COMPS:FHP:1,2013-11-12T08:18:00Z,28.1530,-82.8010,-1.0,22.21,2 
COMPS,ioos:station:USF.COMPS:FHP:1,2013-11-12T08:24:00Z,28.1530,-82.8010,-1.0,22.18,2 
COMPS,ioos:station:USF.COMPS:FHP:1,2013-11-12T08:30:00Z,28.1530,-82.8010,-1.0,22.16,2 
COMPS,ioos:station:USF.COMPS:FHP:1,2013-11-12T08:36:00Z,28.1530,-82.8010,-1.0,22.14,2 
COMPS,ioos:station:USF.COMPS:FHP:1,2013-11-12T08:42:00Z,28.1530,-82.8010,-1.0,22.12,2 
COMPS,ioos:station:USF.COMPS:FHP:1,2013-11-12T08:48:00Z,28.1530,-82.8010,-1.0,22.07,2 
COMPS,ioos:station:USF.COMPS:FHP:1,2013-11-12T08:54:00Z,28.1530,-82.8010,-1.0,22.05,2 
COMPS,ioos:station:USF.COMPS:FHP:1,2013-11-12T09:00:00Z,28.1530,-82.8010,-1.0,22.07,2 
COMPS,ioos:station:USF.COMPS:FHP:1,2013-11-12T09:06:00Z,28.1530,-82.8010,-1.0,22.08,2 
COMPS,ioos:station:USF.COMPS:FHP:1,2013-11-12T09:12:00Z,28.1530,-82.8010,-1.0,22.08,2 
COMPS,ioos:station:USF.COMPS:FHP:1,2013-11-12T09:18:00Z,28.1530,-82.8010,-1.0,22.02,2 
COMPS,ioos:station:USF.COMPS:FHP:1,2013-11-12T09:24:00Z,28.1530,-82.8010,-1.0,22.06,2 
COMPS,ioos:station:USF.COMPS:FHP:1,2013-11-12T09:30:00Z,28.1530,-82.8010,-1.0,22.09,2 
COMPS,ioos:station:USF.COMPS:FHP:1,2013-11-12T09:36:00Z,28.1530,-82.8010,-1.0,22.09,2 
COMPS,ioos:station:USF.COMPS:FHP:1,2013-11-12T09:42:00Z,28.1530,-82.8010,-1.0,22.08,2 
COMPS,ioos:station:USF.COMPS:FHP:1,2013-11-12T09:48:00Z,28.1530,-82.8010,-1.0,22.1,2 
COMPS,ioos:station:USF.COMPS:FHP:1,2013-11-12T09:54:00Z,28.1530,-82.8010,-1.0,22.08,2 
COMPS,ioos:station:USF.COMPS:FHP:1,2013-11-12T10:00:00Z,28.1530,-82.8010,-1.0,22.08,2 
COMPS,ioos:station:USF.COMPS:FHP:1,2013-11-12T10:06:00Z,28.1530,-82.8010,-1.0,22.05,2 
COMPS,ioos:station:USF.COMPS:FHP:1,2013-11-12T10:12:00Z,28.1530,-82.8010,-1.0,22.05,2 
COMPS,ioos:station:USF.COMPS:FHP:1,2013-11-12T10:18:00Z,28.1530,-82.8010,-1.0,22.05,2 
COMPS,ioos:station:USF.COMPS:FHP:1,2013-11-12T10:24:00Z,28.1530,-82.8010,-1.0,22.04,2 
COMPS,ioos:station:USF.COMPS:FHP:1,2013-11-12T10:30:00Z,28.1530,-82.8010,-1.0,22.02,2 
COMPS,ioos:station:USF.COMPS:FHP:1,2013-11-12T10:36:00Z,28.1530,-82.8010,-1.0,21.98,2 
COMPS,ioos:station:USF.COMPS:FHP:1,2013-11-12T10:42:00Z,28.1530,-82.8010,-1.0,22.0,2 
COMPS,ioos:station:USF.COMPS:FHP:1,2013-11-12T10:48:00Z,28.1530,-82.8010,-1.0,22.0,2 
COMPS,ioos:station:USF.COMPS:FHP:1,2013-11-12T10:54:00Z,28.1530,-82.8010,-1.0,21.98,2 
COMPS,ioos:station:USF.COMPS:FHP:1,2013-11-12T11:00:00Z,28.1530,-82.8010,-1.0,21.95,2 
COMPS,ioos:station:USF.COMPS:FHP:1,2013-11-12T11:06:00Z,28.1530,-82.8010,-1.0,21.95,2 
COMPS,ioos:station:USF.COMPS:FHP:1,2013-11-12T11:12:00Z,28.1530,-82.8010,-1.0,21.93,2 
COMPS,ioos:station:USF.COMPS:FHP:1,2013-11-12T11:18:00Z,28.1530,-82.8010,-1.0,21.9,2 
COMPS,ioos:station:USF.COMPS:FHP:1,2013-11-12T11:24:00Z,28.1530,-82.8010,-1.0,21.9,2 
COMPS,ioos:station:USF.COMPS:FHP:1,2013-11-12T11:30:00Z,28.1530,-82.8010,-1.0,21.86,2 
COMPS,ioos:station:USF.COMPS:FHP:1,2013-11-12T11:36:00Z,28.1530,-82.8010,-1.0,21.79,2 
COMPS,ioos:station:USF.COMPS:FHP:1,2013-11-12T11:42:00Z,28.1530,-82.8010,-1.0,21.77,2 
COMPS,ioos:station:USF.COMPS:FHP:1,2013-11-12T11:48:00Z,28.1530,-82.8010,-1.0,21.73,2 
COMPS,ioos:station:USF.COMPS:FHP:1,2013-11-12T11:54:00Z,28.1530,-82.8010,-1.0,21.73,2 
COMPS,ioos:station:USF.COMPS:FHP:1,2013-11-12T12:00:00Z,28.1530,-82.8010,-1.0,21.7,2 
COMPS,ioos:station:USF.COMPS:FHP:1,2013-11-12T12:06:00Z,28.1530,-82.8010,-1.0,21.69,2 
COMPS,ioos:station:USF.COMPS:FHP:1,2013-11-12T12:12:00Z,28.1530,-82.8010,-1.0,21.68,2 
COMPS,ioos:station:USF.COMPS:FHP:1,2013-11-12T12:18:00Z,28.1530,-82.8010,-1.0,21.64,2 
COMPS,ioos:station:USF.COMPS:FHP:1,2013-11-12T12:24:00Z,28.1530,-82.8010,-1.0,21.63,2 
COMPS,ioos:station:USF.COMPS:FHP:1,2013-11-12T12:30:00Z,28.1530,-82.8010,-1.0,21.67,2 
COMPS,ioos:station:USF.COMPS:FHP:1,2013-11-12T12:36:00Z,28.1530,-82.8010,-1.0,21.67,2 
COMPS,ioos:station:USF.COMPS:FHP:1,2013-11-12T12:42:00Z,28.1530,-82.8010,-1.0,21.72,2 
COMPS,ioos:station:USF.COMPS:FHP:1,2013-11-12T12:48:00Z,28.1530,-82.8010,-1.0,21.69,2 
COMPS,ioos:station:USF.COMPS:FHP:1,2013-11-12T12:54:00Z,28.1530,-82.8010,-1.0,21.74,2 
COMPS,ioos:station:USF.COMPS:FHP:1,2013-11-12T13:00:00Z,28.1530,-82.8010,-1.0,21.74,2 
COMPS,ioos:station:USF.COMPS:FHP:1,2013-11-12T13:06:00Z,28.1530,-82.8010,-1.0,21.73,2 
COMPS,ioos:station:USF.COMPS:FHP:1,2013-11-12T13:12:00Z,28.1530,-82.8010,-1.0,21.71,2 
COMPS,ioos:station:USF.COMPS:FHP:1,2013-11-12T13:18:00Z,28.1530,-82.8010,-1.0,21.65,2 
COMPS,ioos:station:USF.COMPS:FHP:1,2013-11-12T13:24:00Z,28.1530,-82.8010,-1.0,21.6,2 
COMPS,ioos:station:USF.COMPS:FHP:1,2013-11-12T13:30:00Z,28.1530,-82.8010,-1.0,21.61,2 
COMPS,ioos:station:USF.COMPS:FHP:1,2013-11-12T13:36:00Z,28.1530,-82.8010,-1.0,21.68,2 
COMPS,ioos:station:USF.COMPS:FHP:1,2013-11-12T13:42:00Z,28.1530,-82.8010,-1.0,21.71,2 
COMPS,ioos:station:USF.COMPS:FHP:1,2013-11-12T13:48:00Z,28.1530,-82.8010,-1.0,21.73,2 
COMPS,ioos:station:USF.COMPS:FHP:1,2013-11-12T13:54:00Z,28.1530,-82.8010,-1.0,21.72,2 
COMPS,ioos:station:USF.COMPS:FHP:1,2013-11-12T14:00:00Z,28.1530,-82.8010,-1.0,21.72,2 
COMPS,ioos:station:USF.COMPS:FHP:1,2013-11-12T14:06:00Z,28.1530,-82.8010,-1.0,21.78,2 
COMPS,ioos:station:USF.COMPS:FHP:1,2013-11-12T14:12:00Z,28.1530,-82.8010,-1.0,21.76,2 
COMPS,ioos:station:USF.COMPS:FHP:1,2013-11-12T14:18:00Z,28.1530,-82.8010,-1.0,21.77,2 
COMPS,ioos:station:USF.COMPS:FHP:1,2013-11-12T14:24:00Z,28.1530,-82.8010,-1.0,21.8,2 
COMPS,ioos:station:USF.COMPS:FHP:1,2013-11-12T14:30:00Z,28.1530,-82.8010,-1.0,21.75,2 
COMPS,ioos:station:USF.COMPS:FHP:1,2013-11-12T14:36:00Z,28.1530,-82.8010,-1.0,21.73,2 
COMPS,ioos:station:USF.COMPS:FHP:1,2013-11-12T14:42:00Z,28.1530,-82.8010,-1.0,21.78,2 
COMPS,ioos:station:USF.COMPS:FHP:1,2013-11-12T14:48:00Z,28.1530,-82.8010,-1.0,21.85,2 
COMPS,ioos:station:USF.COMPS:FHP:1,2013-11-12T14:54:00Z,28.1530,-82.8010,-1.0,21.91,2 
COMPS,ioos:station:USF.COMPS:FHP:1,2013-11-12T15:00:00Z,28.1530,-82.8010,-1.0,21.95,2 
COMPS,ioos:station:USF.COMPS:FHP:1,2013-11-12T15:06:00Z,28.1530,-82.8010,-1.0,21.98,2 
COMPS,ioos:station:USF.COMPS:FHP:1,2013-11-12T15:12:00Z,28.1530,-82.8010,-1.0,22.04,2 
COMPS,ioos:station:USF.COMPS:FHP:1,2013-11-12T15:18:00Z,28.1530,-82.8010,-1.0,22.09,2 
COMPS,ioos:station:USF.COMPS:FHP:1,2013-11-12T15:24:00Z,28.1530,-82.8010,-1.0,22.12,2 
COMPS,ioos:station:USF.COMPS:FHP:1,2013-11-12T15:30:00Z,28.1530,-82.8010,-1.0,22.15,2 
COMPS,ioos:station:USF.COMPS:FHP:1,2013-11-12T15:36:00Z,28.1530,-82.8010,-1.0,22.15,2 
COMPS,ioos:station:USF.COMPS:FHP:1,2013-11-12T15:42:00Z,28.1530,-82.8010,-1.0,22.15,2 
COMPS,ioos:station:USF.COMPS:FHP:1,2013-11-12T15:48:00Z,28.1530,-82.8010,-1.0,22.18,2 
COMPS,ioos:station:USF.COMPS:FHP:1,2013-11-12T15:54:00Z,28.1530,-82.8010,-1.0,22.22,2 
COMPS,ioos:station:USF.COMPS:FHP:1,2013-11-12T16:00:00Z,28.1530,-82.8010,-1.0,22.25,2 
COMPS,ioos:station:USF.COMPS:FHP:1,2013-11-12T16:06:00Z,28.1530,-82.8010,-1.0,22.28,2 
COMPS,ioos:station:USF.COMPS:FHP:1,2013-11-12T16:12:00Z,28.1530,-82.8010,-1.0,22.33,2 
COMPS,ioos:station:USF.COMPS:FHP:1,2013-11-12T16:18:00Z,28.1530,-82.8010,-1.0,22.37,2 
COMPS,ioos:station:USF.COMPS:FHP:1,2013-11-12T16:24:00Z,28.1530,-82.8010,-1.0,22.39,2 
COMPS,ioos:station:USF.COMPS:FHP:1,2013-11-12T16:30:00Z,28.1530,-82.8010,-1.0,22.42,2 
COMPS,ioos:station:USF.COMPS:FHP:1,2013-11-12T16:36:00Z,28.1530,-82.8010,-1.0,22.45,2 
COMPS,ioos:station:USF.COMPS:FHP:1,2013-11-12T16:42:00Z,28.1530,-82.8010,-1.0,22.5,2 
COMPS,ioos:station:USF.COMPS:FHP:1,2013-11-12T16:48:00Z,28.1530,-82.8010,-1.0,22.57,2 
COMPS,ioos:station:USF.COMPS:FHP:1,2013-11-12T16:54:00Z,28.1530,-82.8010,-1.0,22.62,2 
COMPS,ioos:station:USF.COMPS:FHP:1,2013-11-12T17:00:00Z,28.1530,-82.8010,-1.0,22.66,2 
COMPS,ioos:station:USF.COMPS:FHP:1,2013-11-12T17:06:00Z,28.1530,-82.8010,-1.0,22.72,2 
COMPS,ioos:station:USF.COMPS:FHP:1,2013-11-12T17:12:00Z,28.1530,-82.8010,-1.0,22.75,2 
COMPS,ioos:station:USF.COMPS:FHP:1,2013-11-12T17:18:00Z,28.1530,-82.8010,-1.0,22.74,2 
COMPS,ioos:station:USF.COMPS:FHP:1,2013-11-12T17:24:00Z,28.1530,-82.8010,-1.0,22.8,2 
COMPS,ioos:station:USF.COMPS:FHP:1,2013-11-12T17:30:00Z,28.1530,-82.8010,-1.0,22.88,2 
COMPS,ioos:station:USF.COMPS:FHP:1,2013-11-12T17:36:00Z,28.1530,-82.8010,-1.0,22.9,2 
COMPS,ioos:station:USF.COMPS:FHP:1,2013-11-12T17:42:00Z,28.1530,-82.8010,-1.0,22.94,2 
COMPS,ioos:station:USF.COMPS:FHP:1,2013-11-12T17:48:00Z,28.1530,-82.8010,-1.0,22.97,2 
COMPS,ioos:station:USF.COMPS:FHP:1,2013-11-12T17:54:00Z,28.1530,-82.8010,-1.0,23.02,2 
COMPS,ioos:station:USF.COMPS:FHP:1,2013-11-12T18:00:00Z,28.1530,-82.8010,-1.0,23.02,2 
COMPS,ioos:station:USF.COMPS:FHP:1,2013-11-12T18:06:00Z,28.1530,-82.8010,-1.0,23.0,2 
COMPS,ioos:station:USF.COMPS:FHP:1,2013-11-12T18:12:00Z,28.1530,-82.8010,-1.0,23.01,2 
COMPS,ioos:station:USF.COMPS:FHP:1,2013-11-12T18:18:00Z,28.1530,-82.8010,-1.0,23.03,2 
COMPS,ioos:station:USF.COMPS:FHP:1,2013-11-12T18:24:00Z,28.1530,-82.8010,-1.0,23.05,2 
COMPS,ioos:station:USF.COMPS:FHP:1,2013-11-12T18:30:00Z,28.1530,-82.8010,-1.0,23.1,2 
COMPS,ioos:station:USF.COMPS:FHP:1,2013-11-12T18:36:00Z,28.1530,-82.8010,-1.0,23.1,2 
COMPS,ioos:station:USF.COMPS:FHP:1,2013-11-12T18:42:00Z,28.1530,-82.8010,-1.0,23.1,2 
COMPS,ioos:station:USF.COMPS:FHP:1,2013-11-12T18:48:00Z,28.1530,-82.8010,-1.0,23.15,2 
COMPS,ioos:station:USF.COMPS:FHP:1,2013-11-12T18:54:00Z,28.1530,-82.8010,-1.0,23.18,2 
COMPS,ioos:station:USF.COMPS:FHP:1,2013-11-12T19:00:00Z,28.1530,-82.8010,-1.0,23.2,2 
COMPS,ioos:station:USF.COMPS:FHP:1,2013-11-12T19:06:00Z,28.1530,-82.8010,-1.0,23.2,2 
COMPS,ioos:station:USF.COMPS:FHP:1,2013-11-12T19:12:00Z,28.1530,-82.8010,-1.0,23.25,2 
COMPS,ioos:station:USF.COMPS:FHP:1,2013-11-12T19:18:00Z,28.1530,-82.8010,-1.0,23.22,2 
COMPS,ioos:station:USF.COMPS:FHP:1,2013-11-12T19:24:00Z,28.1530,-82.8010,-1.0,23.11,2 
COMPS,ioos:station:USF.COMPS:FHP:1,2013-11-12T19:30:00Z,28.1530,-82.8010,-1.0,23.14,2 
COMPS,ioos:station:USF.COMPS:FHP:1,2013-11-12T19:36:00Z,28.1530,-82.8010,-1.0,23.24,2 
COMPS,ioos:station:USF.COMPS:FHP:1,2013-11-12T19:42:00Z,28.1530,-82.8010,-1.0,23.16,2 
COMPS,ioos:station:USF.COMPS:FHP:1,2013-11-12T19:48:00Z,28.1530,-82.8010,-1.0,23.16,2 
COMPS,ioos:station:USF.COMPS:FHP:1,2013-11-12T19:54:00Z,28.1530,-82.8010,-1.0,23.25,2 
COMPS,ioos:station:USF.COMPS:FHP:1,2013-11-12T20:00:00Z,28.1530,-82.8010,-1.0,23.29,2 
COMPS,ioos:station:USF.COMPS:FHP:1,2013-11-12T20:06:00Z,28.1530,-82.8010,-1.0,23.28,2 
COMPS,ioos:station:USF.COMPS:FHP:1,2013-11-12T20:12:00Z,28.1530,-82.8010,-1.0,23.29,2 
COMPS,ioos:station:USF.COMPS:FHP:1,2013-11-12T20:18:00Z,28.1530,-82.8010,-1.0,23.35,2 
COMPS,ioos:station:USF.COMPS:FHP:1,2013-11-12T20:24:00Z,28.1530,-82.8010,-1.0,23.39,2 
COMPS,ioos:station:USF.COMPS:FHP:1,2013-11-12T20:30:00Z,28.1530,-82.8010,-1.0,23.4,2 
COMPS,ioos:station:USF.COMPS:FHP:1,2013-11-12T20:36:00Z,28.1530,-82.8010,-1.0,23.4,2 
COMPS,ioos:station:USF.COMPS:FHP:1,2013-11-12T20:42:00Z,28.1530,-82.8010,-1.0,23.36,2 
COMPS,ioos:station:USF.COMPS:FHP:1,2013-11-12T20:48:00Z,28.1530,-82.8010,-1.0,23.4,2 
COMPS,ioos:station:USF.COMPS:FHP:1,2013-11-12T20:54:00Z,28.1530,-82.8010,-1.0,23.39,2 
COMPS,ioos:station:USF.COMPS:FHP:1,2013-11-12T21:00:00Z,28.1530,-82.8010,-1.0,23.33,2 
COMPS,ioos:station:USF.COMPS:FHP:1,2013-11-12T21:06:00Z,28.1530,-82.8010,-1.0,23.2,2 
COMPS,ioos:station:USF.COMPS:FHP:1,2013-11-12T21:12:00Z,28.1530,-82.8010,-1.0,23.2,2 
COMPS,ioos:station:USF.COMPS:FHP:1,2013-11-12T21:18:00Z,28.1530,-82.8010,-1.0,23.21,2 
COMPS,ioos:station:USF.COMPS:FHP:1,2013-11-12T21:24:00Z,28.1530,-82.8010,-1.0,23.23,2 
COMPS,ioos:station:USF.COMPS:FHP:1,2013-11-12T21:30:00Z,28.1530,-82.8010,-1.0,23.23,2 
COMPS,ioos:station:USF.COMPS:FHP:1,2013-11-12T21:36:00Z,28.1530,-82.8010,-1.0,23.24,2 
COMPS,ioos:station:USF.COMPS:FHP:1,2013-11-12T21:42:00Z,28.1530,-82.8010,-1.0,23.22,2 
COMPS,ioos:station:USF.COMPS:FHP:1,2013-11-12T21:48:00Z,28.1530,-82.8010,-1.0,23.2,2 
COMPS,ioos:station:USF.COMPS:FHP:1,2013-11-12T21:54:00Z,28.1530,-82.8010,-1.0,23.17,2 
COMPS,ioos:station:USF.COMPS:FHP:1,2013-11-12T22:00:00Z,28.1530,-82.8010,-1.0,23.13,2 
COMPS,ioos:station:USF.COMPS:FHP:1,2013-11-12T22:06:00Z,28.1530,-82.8010,-1.0,23.13,2 
COMPS,ioos:station:USF.COMPS:FHP:1,2013-11-12T22:12:00Z,28.1530,-82.8010,-1.0,23.08,2 
COMPS,ioos:station:USF.COMPS:FHP:1,2013-11-12T22:18:00Z,28.1530,-82.8010,-1.0,23.06,2 
COMPS,ioos:station:USF.COMPS:FHP:1,2013-11-12T22:24:00Z,28.1530,-82.8010,-1.0,23.06,2 